CZ-4B DEB, 43661

Orbit data source: Space-Track

CZ-4B DEB, 43661 is space debris in SSO originally from a launch on Wed, 24 Oct 2018 UTC launched from the Taiyaun Space Center, China (TSC). Debris objects in space refer to the collection of defunct objects orbiting the Earth. Examples of debris include non-operational satellites, rocket bodies, and fragments generated from explosions, collisions, or faulty payload assembly.

Loading next visibility...
Identifier
43661, 2018-081E
Orbit
SSO
Country
Flag of CNCN / PRC
Related business
Manufacturer
SAST
Mission
Spacecraft
Bus & Motor
Unknown
Mass
Unknown
Launch date (UTC)
2018-10-24 (8 years ago)
Launch vehicle
Unknown
Launch site
Taiyaun Space Center, China (TSC)
Object type
Payload
Rocket body
Debris
Shape & HBR
Unknown shape, 0.1 m
Radar Cross Section
Small (<0.1 m²)

Expand to show TLE details & history
Last TLE update: 18 hours ago

TLE from 18 hours ago
0 CZ-4B DEB
1 43661U 18081E   26127.06169182  .00000083  00000-0  10345-3 0  9996
2 43661  99.1263 157.7960 0014193  89.8737 270.4048 13.89461920381894
Epoch: 2026-05-07T01:28Z
TLE epoch observation values (Epoch: 2026-05-07T01:28:50.173Z)
Latitude
0.00003°
Longitude
-89.32629°
Altitude
933.318 km
Speed
7.385 km/s
True Right ascension
10h 31m 11s
True Declination
0° 00' 00"
Sunlit
Object was in daylight at epoch
Visualization orbit readout
Latitude
Unknown
Longitude
Unknown
Altitude
Unknown
Speed
Unknown
Apparent Right ascension
Unknown
Apparent Declination
Unknown
Sunlit
N/A
Visualization observer readout
Local Sidereal Time
03:54:32
Azimuth
Unknown
Elevation
Unknown
Doppler factor
Unknown
Orbital elements
Apogee altitude
938.106 km
Perigee altitude
917.368 km
Semi-major axis
7,305.874 km
Eccentricity
0.00142
Inclination
99.1263°
RAAN
157.796°
Arg. of periapsis
89.8737°
True anomaly
270.24216°
Mean anomaly
270.4048°
Eccentric anomaly
270.32348°
Mean motion
3.47564 °/min
Orbital period
103.58 mins
BSTAR
0.00010345
Loading maneuver chart data...
Computing Atmospheric mass density...
Loading historical data...
Loading historical data...
Loading historical data...
Loading historical data...
Loading historical data...
Loading historical data...
Loading historical data...

Documentation

Showing up to 5 results
|